sat.trackr.live / text

‹ back to catalog

KUIPER-00375

NORAD 68868 · 2026-095E

PAYLOAD ACTIVE UNKNOWN

§ Identity

Operator
Country
US
Launch date
2026-04-28
Launch site
AFETR
Launch vehicle
Mass (kg)
RCS (m²)

External: N2YO · Heavens-Above · Gunter

§ Orbital elements

Epoch: 2026-09-19T11:37:23.398176Z

Period
97.30 min
Inclination
51.9016°
Eccentricity
0.0000523
Mean motion
14.79934886 rev/d
Perigee alt
629.2 km
Apogee alt
629.9 km
Semi-major
7,007.7 km
B*
2.7804e-5
RAAN
181.1808°
Arg perigee
104.5867°
Mean anomaly
255.5153°
Rev number
2,175

§ Raw data

KUIPER-003751 68868U 26095E   26262.48429859 -.00000009  00000+0  27804-4 0  99992 68868  51.9016 181.1808 0000523 104.5867 255.5153 14.79934886 21758

JSON: /api/v1/satellites/68868 · /tle

For live sub-satellite position, see the globe view (requires WebGL).

§ Visibility from observer

Set your observer location to see the next 7 days of passes ≥ 10°. The values pass through the URL so the page stays shareable.

No JS? Fill the form by hand. The geolocation button needs JavaScript.